Location: Misciano
(43.5000°N, 11.9500°E)
Time: 09:38:39
(UTC+00:00)

Cosmos 1933 Rocket - Pass Details

Date: 13 August 2020
Orbit: 606 x 630 km, 82.5° (Epoch: 20 September)

Event Time Altitude Azimuth Distance (km) Brightness Sun altitude
Exits shadow 20:10:13 28° 176° (S) 1,171 4.6 -18.2°
Maximum altitude 20:12:29 74° 96° (E) 653 3.5 -18.5°
Drops below altitude 10° 20:16:56 10° 12° (NNE) 2,012 6.6 -19.1°
Sets 20:19:12 0° 11° (N) 2,926 7.5 -19.4°
